Flag for Burkina Faso Weather past 2 weeks in Koudougou, Burkina Faso

Now
81 °F

Scattered clouds.


Feels Like: 85 °F
Forecast: 72 / 88 °F
Wind: 8 mph from Southwest

Location: Ouagadougou Airport

Current Time: Aug 3, 2015 at 10:45:15 AM

Latest Report: Aug 3, 2015 at 10:00 AM


Visibility: 5 mi

Pressure: 30.01 "Hg

Humidity: 79%

Dew point: 73 °F

Location of KoudougouLocation

Historic Weather in Koudougou — Graph

°F

Koudougou temperature yesterday

Maximum temperature yesterday: 82 °F (at 1:00 PM)
Minimum temperature yesterday: 72 °F (at 8:00 AM)
Average temperature yesterday: 78 °F

Past Weeks' High & Low Weather Summary

 TemperatureHumidityPressure
High91 °F (Jul 19, 3:00 PM)100% (Jul 20, 6:00 AM)30.09 "Hg (Jul 20, 6:00 AM)
Low70 °F (Jul 20, 6:00 AM)52% (Jul 25, 4:00 PM)29.83 "Hg (Jul 19, 3:00 PM)
Average80 °F81%29.95 "Hg
* Reported Jul 19 9:00 AM — Aug 3 9:00 AM, Koudougou, Weather by CustomWeather, © 2015

Note: Actual official high and low records may vary slightly from our data, if they occured in-between our weather recording intervals... More about our weather records

Advertising

Koudougou weather history for previous 24 hours

 ConditionsComfort  
Time TempWeatherWind HumidityBarometerVisibility
9:00 AM
Mon, Aug 3
81 °FScattered clouds.5 mph79%29.98 "Hg5 mi
8:00 AM77 °FScattered clouds.5 mph89%29.98 "Hg5 mi
7:00 AM75 °FScattered clouds.2 mph94%29.98 "Hg5 mi
6:00 AM73 °FPassing clouds.5 mph100%29.95 "Hg5 mi
5:00 AM73 °FPassing clouds.2 mph94%29.95 "HgN/A
4:00 AM75 °FPassing clouds.6 mph89%29.95 "HgN/A
3:00 AM75 °FPassing clouds.5 mph94%29.92 "HgN/A
2:00 AM75 °FPassing clouds.No wind94%29.95 "HgN/A
1:00 AM75 °FPassing clouds.No wind94%29.95 "HgN/A
12:00 AM75 °FPassing clouds.2 mph94%29.95 "HgN/A
11:00 PM
Sun, Aug 2
75 °FPassing clouds.No wind94%29.95 "HgN/A
10:00 PM75 °FPassing clouds.No wind94%29.95 "HgN/A
9:00 PM77 °FPassing clouds.2 mph89%29.95 "HgN/A
8:00 PM77 °FPassing clouds.2 mph83%29.92 "HgN/A
7:00 PM77 °FPassing clouds.3 mph83%29.92 "HgN/A
6:00 PM79 °FScattered clouds.7 mph79%29.92 "HgN/A
5:00 PM81 °FPassing clouds.9 mph74%29.89 "HgN/A
4:00 PM82 °FPassing clouds.10 mph70%29.92 "HgN/A
3:00 PM82 °FPassing clouds.7 mph70%29.92 "HgN/A
2:00 PM82 °FPassing clouds.6 mph70%29.92 "HgN/A
1:00 PM82 °FPassing clouds.3 mph70%29.95 "HgN/A
10:00 AM73 °FThunderstorms. Partly sunny.5 mph94%30.04 "Hg5 mi
Weather by CustomWeather, © 2015

See weather overviewHow to use our weather pages